Simultaneous Nadir Overpasses (SNOs) Predictions

Prediction of SNOs between GOES-16 and METOP-B Satellite Orbit:

Table of predicted SNOs for the next 14.0 days since TLE Epoch: 2/1/2025
Index Date Time (GOES-16) GOES-16 Lat,Lon METOP-B Lat,Lon Distance(km) Time Diff (sec)
1 02/01/2025 14:29:11 0.00, -75.21 0.87, -79.24 459.34 80
2 02/02/2025 14:11:16 0.00, -75.22 -0.22, -74.27 108.64 80
3 02/04/2025 02:30:22 -0.00, -75.21 -0.84, -78.91 421.37 80
4 02/05/2025 02:07:07 -0.00, -75.23 0.26, -73.94 146.71 80
5 02/06/2025 14:26:05 0.01, -75.29 0.75, -78.55 370.83 80
6 02/07/2025 14:08:09 0.01, -75.31 -0.36, -73.58 197.57 80
7 02/09/2025 02:27:16 -0.01, -75.31 -0.68, -78.21 331.55 80
8 02/10/2025 02:04:00 -0.01, -75.33 0.43, -73.24 237.09 80
9 02/11/2025 14:22:58 0.01, -75.41 0.56, -77.86 279.30 80
10 02/12/2025 14:02:23 0.01, -75.43 -0.55, -72.89 290.14 80
11 02/14/2025 02:24:09 -0.01, -75.45 -0.46, -77.53 236.88 80
12 02/15/2025 02:00:54 -0.01, -75.48 0.66, -72.56 332.95 80
